sat.trackr.live / text

‹ back to catalog

ARCTURUS

NORAD 56371 · 2023-060B

PAYLOAD ACTIVE UNKNOWN

§ Identity

Operator
Country
US
Launch date
2023-05-01
Launch site
AFETR
Launch vehicle
Mass (kg)
RCS (m²)

Purposes: comms

External: N2YO · Heavens-Above · Gunter

§ Orbital elements

Epoch: 2026-09-19T21:15:38.616768Z

Period
1,436.05 min
Inclination
3.0117°
Eccentricity
0.0000712
Mean motion
1.00274960 rev/d
Perigee alt
35,782.7 km
Apogee alt
35,788.7 km
Semi-major
42,163.8 km
B*
0.0000e+0
RAAN
78.7036°
Arg perigee
199.8538°
Mean anomaly
158.8872°
Rev number
1,240

§ Raw data

ARCTURUS1 56371U 23060B   26262.88586362 -.00000365  00000+0  00000+0 0  99902 56371   3.0117  78.7036 0000712 199.8538 158.8872  1.00274960 12405

JSON: /api/v1/satellites/56371 · /tle

For live sub-satellite position, see the globe view (requires WebGL).

§ Visibility from observer

Set your observer location to see the next 7 days of passes ≥ 10°. The values pass through the URL so the page stays shareable.

No JS? Fill the form by hand. The geolocation button needs JavaScript.